Weather History for Hereford, TX

Change the Weather History Date:

Sunday, November 3, 2013

  Actual Average (KAMA) Record (KAMA)
Temperature  
Mean Temperature 55 °F 52 °F  
Max Temperature 70 °F 66 °F 84 °F (1931)
Min Temperature 40 °F 38 °F 7 °F (1991)
Degree Days  
Heating Degree Days 10 13  
Month to date heating degree days 38  
Since 1 July heating degree days 318  
Cooling Degree Days 0 0  
Month to date cooling degree days 0  
Year to date cooling degree days 1398  
Growing Degree Days 5 (Base 50)    
Moisture  
Dew Point 29 °F    
Average Humidity 41    
Maximum Humidity 72    
Minimum Humidity 17    
Precipitation  
Precipitation 0.00 in 0.04 in 0.88 in (1986)
Month to date precipitation 0.11  
Year to date precipitation 18.96  
Snow  
Snow 0.00 in 0.10 in 2.10 in (1990)
Month to date snowfall 0.2  
Since 1 July snowfall 0.4  
Since 1 September snowfall 0.4  
Snow Depth -    
Sea Level Pressure  
Sea Level Pressure 29.93 in    
Wind  
Wind Speed 15 mph (SSW)    
Max Wind Speed 26 mph    
Max Gust Speed 33 mph    
Visibility 10 miles    
Events      
T = Trace of Precipitation, MM = Missing Value Source: NWS Daily Summary

Daily Weather History Graph

Daily Weather History Graph

Search for Another Location

Airport:

Trip Planner

Search our weather history database for the weather conditions in past years. The results will help you decide how hot, cold, wet, or windy it might be!

Date:

Astronomy

Nov. 03, 2013 Rise Set
Actual Time 7:12 AM CST 5:53 PM CST
Civil Twilight 6:45 AM CST 6:19 PM CST
Nautical Twilight 6:16 AM CST 6:49 PM CST
Astronomical Twilight 5:46 AM CST 7:18 PM CST
Moon 7:17 AM CST (11/3) 6:10 PM CST (11/3)
Length of Visible Light 11h 33m
Length of Day
10h 40m
New Moon, 0% of the Moon is Illuminated
Nov 3
New Moon
Nov 9
First Quarter
Nov 17
Full
Nov 25
Last Quarter
Dec 2
New

Hourly Weather History & Observations

Time (CST) Temp. Windchill Dew Point Humidity Pressure Visibility Wind Dir Wind Speed Gust Speed Precip Events Conditions
12:15 AM 48.4 °F - 25.7 °F 41% 30.10 in 10.0 mi South 15.0 mph 20.7 mph N/A   Clear
12:35 AM 48.2 °F - 25.7 °F 42% 30.09 in 10.0 mi South 15.0 mph - N/A   Clear
12:55 AM 48.2 °F - 26.1 °F 42% 30.09 in 10.0 mi SSW 12.7 mph 17.3 mph N/A   Clear
1:15 AM 48.2 °F - 26.2 °F 42% 30.09 in 10.0 mi SSW 13.8 mph - N/A   Clear
1:35 AM 47.5 °F - 26.4 °F 44% 30.09 in 10.0 mi SSW 12.7 mph - N/A   Clear
1:55 AM 45.9 °F 40.8 °F 26.2 °F 46% 30.09 in 10.0 mi SSW 10.4 mph - N/A   Clear
1:15 AM 46.0 °F 40.2 °F 26.4 °F 46% 30.08 in 10.0 mi SSW 12.7 mph - N/A   Clear
1:35 AM 45.3 °F 40.1 °F 26.4 °F 48% 30.08 in 10.0 mi SSW 10.4 mph - N/A   Clear
1:55 AM 45.1 °F 39.5 °F 26.6 °F 48% 30.06 in 10.0 mi SSW 11.5 mph 16.1 mph N/A   Clear
2:15 AM 45.5 °F 39.2 °F 26.6 °F 48% 30.06 in 10.0 mi SSW 13.8 mph - N/A   Clear
2:35 AM 45.0 °F 39.7 °F 26.6 °F 49% 30.05 in 10.0 mi SSW 10.4 mph - N/A   Clear
2:55 AM 44.6 °F 40.2 °F 26.4 °F 49% 30.05 in 10.0 mi SSW 8.1 mph - N/A   Clear
3:15 AM 45.7 °F 39.8 °F 26.6 °F 47% 30.03 in 10.0 mi SSW 12.7 mph 19.6 mph N/A   Clear
3:35 AM 45.5 °F 39.2 °F 26.6 °F 48% 30.03 in 10.0 mi SSW 13.8 mph - N/A   Clear
3:55 AM 44.8 °F 39.0 °F 26.6 °F 49% 30.02 in 10.0 mi SSW 11.5 mph 17.3 mph N/A   Clear
4:15 AM 44.4 °F 38.6 °F 26.6 °F 50% 30.02 in 10.0 mi SSW 11.5 mph 16.1 mph N/A   Clear
4:35 AM 44.1 °F 38.1 °F 26.6 °F 50% 30.00 in 10.0 mi South 11.5 mph - N/A   Clear
4:55 AM 44.2 °F 38.4 °F 26.6 °F 50% 30.00 in 10.0 mi SSW 11.5 mph - N/A   Clear
5:15 AM 41.9 °F 36.3 °F 26.2 °F 54% 30.00 in 10.0 mi South 9.2 mph - N/A   Clear
5:35 AM 40.5 °F 35.1 °F 26.4 °F 57% 30.00 in 10.0 mi SSW 8.1 mph - N/A   Clear
5:55 AM 40.8 °F 35.6 °F 26.4 °F 57% 30.00 in 10.0 mi South 8.1 mph - N/A   Clear
6:15 AM 43.5 °F 36.7 °F 27.1 °F 53% 29.99 in 10.0 mi SSW 13.8 mph - N/A   Clear
6:35 AM 45.5 °F 39.2 °F 28.0 °F 51% 29.98 in 10.0 mi South 13.8 mph 19.6 mph N/A   Clear
6:55 AM 46.6 °F - 28.4 °F 49% 29.98 in 10.0 mi SSW 13.8 mph 17.3 mph N/A   Clear
7:15 AM 45.7 °F 41.0 °F 28.4 °F 51% 29.98 in 10.0 mi SSW 9.2 mph - N/A   Clear
7:35 AM 45.3 °F 40.6 °F 28.6 °F 52% 29.99 in 10.0 mi SSW 9.2 mph - N/A   Clear
7:55 AM 45.9 °F 39.7 °F 29.3 °F 52% 29.97 in 10.0 mi South 13.8 mph - N/A   Clear
8:15 AM 46.4 °F 40.4 °F 29.8 °F 53% 29.98 in 10.0 mi South 13.8 mph - N/A   Clear
8:35 AM 46.9 °F - 30.0 °F 52% 30.00 in 10.0 mi SSW 9.2 mph - N/A   Clear
8:55 AM 48.9 °F - 30.2 °F 48% 30.00 in 10.0 mi SSW 11.5 mph - N/A   Clear
9:15 AM 50.9 °F - 30.2 °F 45% 30.00 in 10.0 mi SSW 15.0 mph 20.7 mph N/A   Clear
9:35 AM 52.2 °F - 30.0 °F 43% 30.00 in 10.0 mi SSW 13.8 mph - N/A   Clear
9:55 AM 54.5 °F - 29.7 °F 39% 29.98 in 10.0 mi SSW 18.4 mph 25.3 mph N/A   Clear
10:15 AM 55.6 °F - 29.3 °F 37% 29.96 in 10.0 mi SSW 21.9 mph 28.8 mph N/A   Clear
10:35 AM 58.8 °F - 29.7 °F 33% 29.96 in 10.0 mi SSW 20.7 mph 31.1 mph N/A   Clear
10:55 AM 59.9 °F - 29.3 °F 31% 29.95 in 10.0 mi South 21.9 mph 28.8 mph N/A   Clear
11:15 AM 59.9 °F - 29.1 °F 31% 29.94 in 10.0 mi SSW 17.3 mph - N/A   Clear
11:35 AM 62.1 °F - 29.1 °F 29% 29.93 in 10.0 mi SSW 19.6 mph 25.3 mph N/A   Clear
11:55 AM 63.1 °F - 28.6 °F 27% 29.93 in 10.0 mi SW 19.6 mph 26.5 mph N/A   Clear
12:15 PM 64.0 °F - 29.3 °F 27% 29.91 in 10.0 mi SW 20.7 mph 26.5 mph N/A   Clear
12:35 PM 66.7 °F - 29.1 °F 24% 29.91 in 10.0 mi SW 23.0 mph 31.1 mph N/A   Clear
12:55 PM 67.1 °F - 28.8 °F 24% 29.88 in 10.0 mi SSW 26.5 mph 31.1 mph N/A   Clear
1:15 PM 67.3 °F - 28.9 °F 24% 29.88 in 10.0 mi SSW 24.2 mph 33.4 mph N/A   Clear
1:35 PM 67.3 °F - 28.6 °F 23% 29.85 in 10.0 mi SSW 24.2 mph 32.2 mph N/A   Clear
1:55 PM 67.8 °F - 28.4 °F 23% 29.85 in 10.0 mi SSW 26.5 mph 32.2 mph N/A   Clear
2:15 PM 66.6 °F - 28.2 °F 24% 29.84 in 10.0 mi SSW 23.0 mph 27.6 mph N/A   Clear
2:35 PM 69.3 °F - 27.7 °F 21% 29.84 in 10.0 mi SSW 21.9 mph 28.8 mph N/A   Clear
2:55 PM 70.3 °F - 23.7 °F 17% 29.83 in 10.0 mi SW 26.5 mph 29.9 mph N/A   Clear
3:15 PM 69.3 °F - 24.4 °F 19% 29.82 in 10.0 mi SW 20.7 mph 26.5 mph N/A   Clear
3:35 PM 69.4 °F - 24.3 °F 18% 29.80 in 10.0 mi SSW 18.4 mph 25.3 mph N/A   Clear
3:55 PM 69.1 °F - 24.3 °F 19% 29.80 in 10.0 mi SSW 13.8 mph 23.0 mph N/A   Clear
4:15 PM 69.8 °F - 23.9 °F 18% 29.77 in 10.0 mi SSW 17.3 mph 24.2 mph N/A   Clear
4:35 PM 70.0 °F - 25.0 °F 18% 29.77 in 10.0 mi SSW 19.6 mph 27.6 mph N/A   Clear
4:55 PM 70.2 °F - 25.3 °F 19% 29.77 in 10.0 mi SSW 18.4 mph 25.3 mph N/A   Clear
5:15 PM 69.1 °F - 25.9 °F 20% 29.77 in 10.0 mi SSW 18.4 mph 24.2 mph N/A   Clear
5:35 PM 66.9 °F - 28.2 °F 23% 29.78 in 10.0 mi South 13.8 mph 20.7 mph N/A   Clear
5:55 PM 63.3 °F - 32.0 °F 31% 29.79 in 10.0 mi South 17.3 mph 26.5 mph N/A   Clear
6:15 PM 61.5 °F - 32.0 °F 33% 29.79 in 10.0 mi South 15.0 mph - N/A   Clear
6:35 PM 59.9 °F - 32.9 °F 36% 29.80 in 10.0 mi South 16.1 mph - N/A   Clear
6:55 PM 58.8 °F - 34.5 °F 40% 29.80 in 10.0 mi South 19.6 mph - N/A   Clear
7:15 PM 57.4 °F - 34.7 °F 43% 29.81 in 10.0 mi South 19.6 mph 25.3 mph N/A   Clear
7:35 PM 55.9 °F - 35.2 °F 46% 29.81 in 10.0 mi South 21.9 mph 28.8 mph N/A   Clear
7:55 PM 54.9 °F - 35.8 °F 49% 29.81 in 10.0 mi South 19.6 mph 28.8 mph N/A   Clear
8:15 PM 54.5 °F - 36.5 °F 51% 29.81 in 10.0 mi South 21.9 mph 27.6 mph N/A   Clear
8:35 PM 53.2 °F - 36.7 °F 53% 29.81 in 10.0 mi South 24.2 mph 28.8 mph N/A   Clear
8:55 PM 52.2 °F - 37.6 °F 58% 29.81 in 10.0 mi South 19.6 mph 29.9 mph N/A   Clear
9:15 PM 51.4 °F - 38.1 °F 60% 29.82 in 10.0 mi South 19.6 mph 25.3 mph N/A   Clear
9:35 PM 50.4 °F - 38.3 °F 63% 29.83 in 10.0 mi South 16.1 mph 25.3 mph N/A   Clear
9:55 PM 49.8 °F - 38.8 °F 66% 29.83 in 10.0 mi South 19.6 mph 26.5 mph N/A   Clear
10:15 PM 49.1 °F - 39.2 °F 69% 29.84 in 10.0 mi South 20.7 mph 25.3 mph N/A   Clear
10:35 PM 48.4 °F - 39.0 °F 70% 29.84 in 10.0 mi South 18.4 mph 24.2 mph N/A   Clear
10:55 PM 48.0 °F - 39.2 °F 72% 29.84 in 10.0 mi South 19.6 mph - N/A   Clear